FW7003 Weather Reports


Display with metric or nautical units.
time (UTC)temp
F
wind
direction
speed
MPH
gust
MPH
rain 1hr
in
rain 24hr
in
rain mn
in
humidity
%
barometer
mb
20200926031747 71 176 3.0 3.0 0.00 0.00 0.00 10 1016.3
20200926031239 72 164 3.0 3.0 0.00 0.00 0.00 10 1016.2
20200926030741 72 114 4.0 5.0 0.00 0.00 0.00 10 1016.2
20200926030237 72 134 1.0 2.0 0.00 0.00 0.00 10 1016.3
20200926025728 72 182 3.0 3.0 0.00 0.00 0.00 10 1016.2
20200926025225 72 133 2.0 3.0 0.00 0.00 0.00 10 1016.4
20200926024721 72 143 1.0 2.0 0.00 0.00 0.00 10 1016.2
20200926024218 73 127 3.0 3.0 0.00 0.00 0.00 10 1016.5
20200926023715 73 136 2.0 2.0 0.00 0.00 0.00 10 1016.2
20200926023210 73 140 2.0 2.0 0.00 0.00 0.00 10 1016.3
20200926022709 73 159 2.0 2.0 0.00 0.00 0.00 10 1016.2
20200926022210 73 160 2.0 3.0 0.00 0.00 0.00 10 1016.1
20200926021706 73 136 1.0 2.0 0.00 0.00 0.00 10 1016.0
20200926021204 74 131 1.0 2.0 0.00 0.00 0.00 10 1016.0
20200926020704 74 161 1.0 2.0 0.00 0.00 0.00 10 1015.8
20200926020201 74 124 1.0 1.0 0.00 0.00 0.00 10 1015.9
20200926015658 74 127 1.0 2.0 0.00 0.00 0.00 10 1015.8
20200926015153 74 157 1.0 2.0 0.00 0.00 0.00 10 1015.7
20200926014648 74 142 1.0 2.0 0.00 0.00 0.00 10 1015.8
20200926014146 75 157 0.0 1.0 0.00 0.00 0.00 10 1015.8
20200926013642 75 155 1.0 2.0 0.00 0.00 0.00 10 1015.9
20200926013141 75 150 0.0 1.0 0.00 0.00 0.00 10 1015.8
20200926012640 75 170 3.0 3.0 0.00 0.00 0.00 10 1015.4
20200926012134 76 125 2.0 2.0 0.00 0.00 0.00 10 1015.6
20200926011631 76 152 3.0 5.0 0.00 0.00 0.00 10 1015.2
20200926011133 76 153 3.0 5.0 0.00 0.00 0.00 10 1015.2
20200926010627 76 170 3.0 3.0 0.00 0.00 0.00 10 1015.2
20200926010122 77 166 3.0 3.0 0.00 0.00 0.00 10 1015.2
20200926005616 77 167 1.0 2.0 0.00 0.00 0.00 10 1015.3
20200926005114 77 171 4.0 5.0 0.00 0.00 0.00 10 1015.1
20200926004609 77 155 4.0 5.0 0.00 0.00 0.00 10 1015.1
20200926004104 78 153 3.0 3.0 0.00 0.00 0.00 10 1014.8
20200926003604 78 161 3.0 5.0 0.00 0.00 0.00 10 1014.9
20200926003059 78 160 3.0 3.0 0.00 0.00 0.00 10 1015.0
20200926002555 78 129 4.0 6.0 0.00 0.00 0.00 10 1014.9
20200926002056 79 142 3.0 3.0 0.00 0.00 0.00 10 1014.8
20200926001553 79 130 2.0 3.0 0.00 0.00 0.00 10 1014.9
20200926001050 80 141 3.0 3.0 0.00 0.00 0.00 10 1015.0
20200926000547 80 164 6.0 8.0 0.00 0.00 0.00 10 1014.8
20200926000048 81 158 5.0 6.0 0.00 0.00 0.00 10 1015.0
20200925235539 81 131 4.0 5.0 0.00 0.00 0.00 10 1015.0
20200925235037 81 156 6.0 7.0 0.00 0.00 0.00 10 1014.9
20200925234537 82 113 5.0 7.0 0.00 0.00 0.00 10 1014.8
20200925234037 82 159 4.0 5.0 0.00 0.00 0.00 10 1015.0
20200925233529 82 127 5.0 7.0 0.00 0.00 0.00 10 1015.2
20200925233027 82 184 8.0 9.0 0.00 0.00 0.00 10 1014.9
20200925232519 83 137 9.0 10.0 0.00 0.00 0.00 10 1015.1
20200925232019 83 186 5.0 8.0 0.00 0.00 0.00 10 1015.1
20200925231518 83 140 3.0 6.0 0.00 0.00 0.00 10 1015.0
20200925231016 83 159 3.0 5.0 0.00 0.00 0.00 10 1015.1
20200925230518 84 157 5.0 6.0 0.00 0.00 0.00 10 1015.0
20200925230019 84 181 2.0 2.0 0.00 0.00 0.00 10 1014.8
20200925225507 84 160 6.0 7.0 0.00 0.00 0.00 10 1015.0
20200925225017 84 194 9.0 10.0 0.00 0.00 0.00 10 1014.8
20200925224509 84 204 8.0 10.0 0.00 0.00 0.00 10 1015.0
20200925223959 84 178 7.0 9.0 0.00 0.00 0.00 10 1014.9
20200925223457 84 169 7.0 9.0 0.00 0.00 0.00 10 1014.7
20200925222955 84 114 1.0 2.0 0.00 0.00 0.00 10 1015.0
20200925222453 84 133 7.0 8.0 0.00 0.00 0.00 10 1015.0
20200925221957 84 155 6.0 8.0 0.00 0.00 0.00 10 1014.9
20200925221450 84 150 7.0 8.0 0.00 0.00 0.00 10 1014.8
20200925220945 85 176 5.0 7.0 0.00 0.00 0.00 10 1015.1
20200925220441 85 185 6.0 7.0 0.00 0.00 0.00 10 1014.9
20200925215937 85 216 3.0 3.0 0.00 0.00 0.00 10 1015.1
20200925215433 84 156 7.0 8.0 0.00 0.00 0.00 10 1015.2
20200925214929 84 203 7.0 9.0 0.00 0.00 0.00 10 1015.2
20200925214429 85 176 7.0 8.0 0.00 0.00 0.00 10 1015.1
20200925213922 86 117 5.0 7.0 0.00 0.00 0.00 10 1015.1
20200925213421 85 254 1.0 2.0 0.00 0.00 0.00 10 1015.3
20200925212917 85 169 7.0 10.0 0.00 0.00 0.00 10 1015.3
20200925212414 84 174 4.0 5.0 0.00 0.00 0.00 10 1015.2
20200925211910 84 162 7.0 8.0 0.00 0.00 0.00 10 1015.2
20200925211408 84 181 7.0 9.0 0.00 0.00 0.00 10 1015.3
20200925210907 84 169 7.0 9.0 0.00 0.00 0.00 10 1015.2
20200925210358 84 202 6.0 8.0 0.00 0.00 0.00 10 1015.4
20200925205853 84 129 5.0 7.0 0.00 0.00 0.00 10 1015.2
20200925205353 84 150 5.0 7.0 0.00 0.00 0.00 10 1015.6
20200925204852 84 170 6.0 7.0 0.00 0.00 0.00 10 1015.7
20200925204353 84 202 6.0 7.0 0.00 0.00 0.00 10 1015.6
20200925203847 83 176 3.0 3.0 0.00 0.00 0.00 10 1015.9
20200925203350 83 184 8.0 10.0 0.00 0.00 0.00 10 1015.6
20200925202842 83 164 10.0 11.0 0.00 0.00 0.00 10 1015.6
20200925202340 82 188 5.0 6.0 0.00 0.00 0.00 10 1015.9
20200925201837 83 129 4.0 6.0 0.00 0.00 0.00 10 1015.9
20200925201332 83 135 5.0 7.0 0.00 0.00 0.00 10 1015.8
20200925200831 83 203 4.0 6.0 0.00 0.00 0.00 10 1016.1
20200925200330 82 125 7.0 7.0 0.00 0.00 0.00 10 1016.2
20200925195828 82 121 4.0 8.0 0.00 0.00 0.00 10 1016.3
20200925195324 82 161 11.0 11.0 0.00 0.00 0.00 10 1016.2
20200925194820 82 156 4.0 7.0 0.00 0.00 0.00 10 1016.2
20200925194317 81 115 2.0 3.0 0.00 0.00 0.00 10 1016.2
20200925193813 82 179 5.0 7.0 0.00 0.00 0.00 10 1016.3
20200925193312 81 109 5.0 8.0 0.00 0.00 0.00 10 1016.5
20200925192810 81 156 6.0 9.0 0.00 0.00 0.00 10 1016.5
20200925192306 80 169 7.0 8.0 0.00 0.00 0.00 10 1016.6
20200925191805 81 183 3.0 5.0 0.00 0.00 0.00 10 1016.9
20200925191305 81 177 3.0 3.0 0.00 0.00 0.00 10 1016.9
20200925190755 80 184 6.0 8.0 0.00 0.00 0.00 10 1016.8
20200925190250 80 158 5.0 6.0 0.00 0.00 0.00 10 1016.8
20200925185747 80 212 7.0 8.0 0.00 0.00 0.00 10 1017.0
20200925185244 79 162 6.0 9.0 0.00 0.00 0.00 10 1017.1
20200925184741 79 157 9.0 11.0 0.00 0.00 0.00 10 1017.1
20200925184244 79 211 7.0 8.0 0.00 0.00 0.00 10 1017.4
20200925183738 79 177 7.0 9.0 0.00 0.00 0.00 10 1017.4
20200925183232 78 186 5.0 7.0 0.00 0.00 0.00 10 1017.7
20200925182728 78 159 7.0 8.0 0.00 0.00 0.00 10 1017.5
20200925182227 77 172 4.0 6.0 0.00 0.00 0.00 10 1017.6
20200925181724 78 181 5.0 7.0 0.00 0.00 0.00 10 1017.9
20200925181223 78 139 5.0 6.0 0.00 0.00 0.00 10 1017.9
20200925180718 78 188 9.0 11.0 0.00 0.00 0.00 10 1017.9
20200925180219 78 180 4.0 6.0 0.00 0.00 0.00 10 1017.8
20200925175711 77 156 7.0 8.0 0.00 0.00 0.00 10 1017.8
20200925175207 77 199 8.0 9.0 0.00 0.00 0.00 10 1017.8
20200925174703 78 184 6.0 7.0 0.00 0.00 0.00 10 1017.9
20200925174200 77 192 3.0 6.0 0.00 0.00 0.00 10 1018.0
20200925173656 77 184 7.0 9.0 0.00 0.00 0.00 10 1017.9
20200925173155 76 248 7.0 8.0 0.00 0.00 0.00 10 1017.9
20200925172651 76 187 5.0 6.0 0.00 0.00 0.00 10 1018.2
20200925172147 76 205 5.0 6.0 0.00 0.00 0.00 10 1018.3
20200925171653 75 119 4.0 5.0 0.00 0.00 0.00 10 1018.1
20200925171140 75 197 5.0 7.0 0.00 0.00 0.00 10 1018.5
20200925170639 75 180 6.0 7.0 0.00 0.00 0.00 10 1018.3
20200925170137 74 205 6.0 7.0 0.00 0.00 0.00 10 1018.3
20200925165633 75 207 5.0 6.0 0.00 0.00 0.00 10 1018.5
20200925165128 74 206 4.0 5.0 0.00 0.00 0.00 10 1018.6
20200925164624 74 174 6.0 8.0 0.00 0.00 0.00 10 1018.5
20200925164123 73 233 4.0 6.0 0.00 0.00 0.00 10 1018.4
20200925163621 73 184 7.0 8.0 0.00 0.00 0.00 10 1018.5
20200925163117 73 206 6.0 7.0 0.00 0.00 0.00 10 1018.7
20200925162613 73 192 5.0 6.0 0.00 0.00 0.00 10 1018.7
20200925162112 72 208 3.0 5.0 0.00 0.00 0.00 10 1018.6
20200925161605 71 205 4.0 6.0 0.00 0.00 0.00 10 1018.7
20200925161107 71 176 7.0 8.0 0.00 0.00 0.00 10 1018.6
20200925160603 71 148 10.0 11.0 0.00 0.00 0.00 10 1018.6
20200925160059 71 214 6.0 10.0 0.00 0.00 0.00 10 1018.6
20200925155550 71 188 7.0 8.0 0.00 0.00 0.00 10 1018.8
20200925155049 70 201 7.0 8.0 0.00 0.00 0.00 10 1018.7
20200925154549 70 207 7.0 7.0 0.00 0.00 0.00 10 1018.6
20200925154044 69 179 6.0 8.0 0.00 0.00 0.00 10 1018.9
20200925153542 69 172 5.0 7.0 0.00 0.00 0.00 10 1018.6
20200925153041 69 213 6.0 7.0 0.00 0.00 0.00 10 1018.7
20200925152539 68 158 6.0 8.0 0.00 0.00 0.00 10 1018.5
20200925152031 68 189 9.0 11.0 0.00 0.00 0.00 10 1018.8
20200925151532 68 192 3.0 5.0 0.00 0.00 0.00 10 1018.7
20200925151028 67 227 5.0 7.0 0.00 0.00 0.00 10 1018.5
20200925150526 66 181 3.0 3.0 0.00 0.00 0.00 10 1018.7
20200925150030 66 219 4.0 6.0 0.00 0.00 0.00 10 1018.6
20200925145524 66 196 5.0 6.0 0.00 0.00 0.00 10 1018.6
20200925145017 66 220 3.0 5.0 0.00 0.00 0.00 10 1018.7
20200925144531 66 199 5.0 7.0 0.00 0.00 0.00 10 1018.7
20200925144013 66 208 2.0 3.0 0.00 0.00 0.00 10 1018.6
20200925143510 66 176 5.0 8.0 0.00 0.00 0.00 10 1018.4
20200925142957 66 236 6.0 7.0 0.00 0.00 0.00 10 1018.5
20200925142457 66 157 3.0 3.0 0.00 0.00 0.00 10 1018.3
20200925141956 66 211 3.0 5.0 0.00 0.00 0.00 10 1018.2
20200925141449 65 194 3.0 5.0 0.00 0.00 0.00 10 1018.3
20200925140943 65 196 4.0 5.0 0.00 0.00 0.00 10 1018.3
20200925140439 64 190 5.0 6.0 0.00 0.00 0.00 10 1018.0
20200925135942 64 176 5.0 7.0 0.00 0.00 0.00 10 1018.1
20200925135438 64 208 5.0 6.0 0.00 0.00 0.00 10 1017.7
20200925134929 63 155 5.0 6.0 0.00 0.00 0.00 10 1017.8
20200925134428 63 148 5.0 6.0 0.00 0.00 0.00 10 1017.9
20200925133926 62 179 2.0 2.0 0.00 0.00 0.00 10 1017.8
20200925133421 62 190 2.0 3.0 0.00 0.00 0.00 10 1017.9
20200925132919 61 185 2.0 2.0 0.00 0.00 0.00 10 1017.9
20200925132417 61 168 2.0 3.0 0.00 0.00 0.00 10 1018.0
20200925131912 61 179 3.0 3.0 0.00 0.00 0.00 10 1017.6
20200925131412 60 173 2.0 2.0 0.00 0.00 0.00 10 1017.7
20200925130913 60 161 1.0 2.0 0.00 0.00 0.00 10 1017.6
20200925130411 60 155 1.0 1.0 0.00 0.00 0.00 10 1017.8
20200925125911 60 161 2.0 2.0 0.00 0.00 0.00 10 1017.5
20200925125406 60 170 0.0 0.0 0.00 0.00 0.00 10 1017.6
20200925124902 59 177 0.0 0.0 0.00 0.00 0.00 10 1017.6
20200925124359 59 191 0.0 0.0 0.00 0.00 0.00 10 1017.7
20200925123858 59 174 0.0 1.0 0.00 0.00 0.00 10 1017.6
20200925123354 59 186 0.0 0.0 0.00 0.00 0.00 10 1017.5
20200925122852 59 188 0.0 1.0 0.00 0.00 0.00 10 1017.4
20200925122355 59 192 0.0 0.0 0.00 0.00 0.00 10 1017.5
20200925121844 59 206 0.0 0.0 0.00 0.00 0.00 10 1017.3
20200925121353 59 191 2.0 2.0 0.00 0.00 0.00 10 1017.3
20200925120844 59 187 1.0 2.0 0.00 0.00 0.00 10 1017.3
20200925120342 59 179 2.0 2.0 0.00 0.00 0.00 10 1017.4
20200925115837 59 186 3.0 3.0 0.00 0.00 0.00 10 1017.4
20200925115335 59 199 1.0 1.0 0.00 0.00 0.00 10 1017.4
20200925114836 59 183 1.0 1.0 0.00 0.00 0.00 10 1017.2
20200925114330 59 168 1.0 2.0 0.00 0.00 0.00 10 1017.2
20200925113828 59 189 1.0 1.0 0.00 0.00 0.00 10 1016.9
20200925113326 59 189 1.0 1.0 0.00 0.00 0.00 10 1017.1
20200925112823 60 193 1.0 2.0 0.00 0.00 0.00 10 1017.0
20200925112318 60 213 1.0 2.0 0.00 0.00 0.00 10 1017.0
20200925111821 60 197 0.0 1.0 0.00 0.00 0.00 10 1016.8
20200925111311 60 202 2.0 2.0 0.00 0.00 0.00 10 1016.7
20200925110811 60 191 0.0 1.0 0.00 0.00 0.00 10 1016.8
20200925110313 60 194 0.0 0.0 0.00 0.00 0.00 10 1016.8
20200925105803 60 196 1.0 1.0 0.00 0.00 0.00 10 1016.5
20200925105257 60 194 1.0 1.0 0.00 0.00 0.00 10 1016.5
20200925104751 60 183 0.0 0.0 0.00 0.00 0.00 10 1016.7
20200925104249 60 229 1.0 2.0 0.00 0.00 0.00 10 1016.7
20200925103743 60 217 1.0 2.0 0.00 0.00 0.00 10 1016.5
20200925103241 60 215 1.0 2.0 0.00 0.00 0.00 10 1016.5
20200925102738 60 193 0.0 1.0 0.00 0.00 0.00 10 1016.6
20200925102235 60 201 3.0 3.0 0.00 0.00 0.00 10 1016.4
20200925101734 60 181 1.0 2.0 0.00 0.00 0.00 10 1016.4
20200925101232 60 203 2.0 2.0 0.00 0.00 0.00 10 1016.2
20200925100730 60 186 2.0 2.0 0.00 0.00 0.00 10 1016.3
20200925100223 60 159 4.0 5.0 0.00 0.00 0.00 10 1016.5
20200925095722 60 198 2.0 2.0 0.00 0.00 0.00 10 1016.2
20200925095218 60 197 1.0 1.0 0.00 0.00 0.00 10 1016.1
20200925094721 60 241 3.0 5.0 0.00 0.00 0.00 10 1016.0
20200925094217 60 207 3.0 3.0 0.00 0.00 0.00 10 1016.3
20200925093713 61 185 2.0 2.0 0.00 0.00 0.00 10 1016.1
20200925093213 60 208 2.0 2.0 0.00 0.00 0.00 10 1016.2
20200925092705 60 229 3.0 3.0 0.00 0.00 0.00 10 1016.1
20200925092204 60 225 2.0 2.0 0.00 0.00 0.00 10 1016.0
20200925091700 60 218 0.0 1.0 0.00 0.00 0.00 10 1016.0
20200925091156 61 220 1.0 2.0 0.00 0.00 0.00 10 1015.9
20200925090657 60 209 1.0 2.0 0.00 0.00 0.00 10 1015.9
20200925090153 61 217 2.0 2.0 0.00 0.00 0.00 10 1015.8
20200925085656 61 193 1.0 2.0 0.00 0.00 0.00 10 1015.9
20200925085150 61 200 1.0 1.0 0.00 0.00 0.00 10 1015.9
20200925084646 61 193 0.0 1.0 0.00 0.00 0.00 10 1016.0
20200925084144 61 195 1.0 2.0 0.00 0.00 0.00 10 1015.8
20200925083644 61 180 3.0 3.0 0.00 0.00 0.00 10 1015.7
20200925083140 61 208 2.0 2.0 0.00 0.00 0.00 10 1016.0
20200925082634 61 193 3.0 3.0 0.00 0.00 0.00 10 1015.8
20200925082133 61 161 2.0 3.0 0.00 0.00 0.00 10 1016.2
20200925081630 61 213 2.0 2.0 0.00 0.00 0.00 10 1016.0
20200925081126 61 197 1.0 2.0 0.00 0.00 0.00 10 1015.8
20200925080623 61 194 2.0 2.0 0.00 0.00 0.00 10 1016.0
20200925080118 61 218 3.0 3.0 0.00 0.00 0.00 10 1015.9
20200925075614 61 159 3.0 3.0 0.00 0.00 0.00 10 1015.8
20200925075114 61 207 2.0 2.0 0.00 0.00 0.00 10 1015.9
20200925074610 61 148 2.0 2.0 0.00 0.00 0.00 10 1016.0
20200925074107 61 208 1.0 2.0 0.00 0.00 0.00 10 1016.0
20200925073606 61 200 0.0 1.0 0.00 0.00 0.00 10 1016.0
20200925073106 61 205 1.0 1.0 0.00 0.00 0.00 10 1015.9
20200925072605 61 210 0.0 0.0 0.00 0.00 0.00 10 1015.9
20200925072101 61 215 0.0 0.0 0.00 0.00 0.00 10 1015.8
20200925071600 62 201 0.0 0.0 0.00 0.00 0.00 10 1016.0
20200925071055 62 194 1.0 1.0 0.00 0.00 0.00 10 1015.8
20200925070553 62 184 2.0 2.0 0.00 0.00 0.00 10 1015.7
20200925070051 62 218 2.0 3.0 0.00 0.00 0.00 10 1015.7
20200925065551 62 176 3.0 5.0 0.00 0.00 0.00 10 1015.8
20200925065045 62 186 4.0 5.0 0.00 0.00 0.00 10 1015.6
20200925064540 62 189 2.0 3.0 0.00 0.00 0.00 10 1015.9
20200925064035 62 183 3.0 3.0 0.00 0.00 0.00 10 1015.9
20200925063533 63 197 4.0 5.0 0.00 0.00 0.00 10 1015.7
20200925063034 63 184 3.0 3.0 0.00 0.00 0.00 10 1015.8
20200925062527 63 210 3.0 3.0 0.00 0.00 0.00 10 1016.0
20200925062026 63 165 5.0 7.0 0.00 0.00 0.00 10 1015.9
20200925061522 63 180 3.0 5.0 0.00 0.00 0.00 10 1015.8
20200925061018 63 176 5.0 7.0 0.00 0.00 0.00 10 1015.9
20200925060513 63 139 5.0 6.0 0.00 0.00 0.00 10 1015.8
20200925060023 63 201 5.0 6.0 0.00 0.00 0.00 10 1016.0
20200925055504 63 173 9.0 11.0 0.00 0.00 0.00 10 1015.8
20200925055006 63 210 7.0 8.0 0.00 0.00 0.00 10 1015.8
20200925054500 63 157 5.0 7.0 0.00 0.00 0.00 10 1015.9
20200925053957 63 196 6.0 9.0 0.00 0.00 0.00 10 1016.0
20200925053451 63 162 6.0 8.0 0.00 0.00 0.00 10 1015.8
20200925052947 63 142 5.0 5.0 0.00 0.00 0.00 10 1015.8
20200925052447 63 194 6.0 7.0 0.00 0.00 0.00 10 1016.0
20200925051943 64 178 4.0 6.0 0.00 0.00 0.00 10 1016.1
20200925051439 64 188 7.0 8.0 0.00 0.00 0.00 10 1015.8
20200925050935 64 173 4.0 5.0 0.00 0.00 0.00 10 1016.1
20200925050431 64 181 5.0 6.0 0.00 0.00 0.00 10 1015.8
20200925045932 64 152 4.0 6.0 0.00 0.00 0.00 10 1015.9
20200925045424 64 197 5.0 6.0 0.00 0.00 0.00 10 1016.2
20200925044924 64 188 4.0 5.0 0.00 0.00 0.00 10 1016.1
20200925044416 65 185 5.0 7.0 0.00 0.00 0.00 10 1016.3
20200925043909 65 202 7.0 8.0 0.00 0.00 0.00 10 1016.3
20200925043411 65 144 7.0 8.0 0.00 0.00 0.00 10 1016.3
20200925042907 65 201 5.0 7.0 0.00 0.00 0.00 10 1016.1
20200925042405 66 228 3.0 3.0 0.00 0.00 0.00 10 1016.2
20200925041900 66 190 3.0 5.0 0.00 0.00 0.00 10 1016.4
20200925041356 66 141 5.0 6.0 0.00 0.00 0.00 10 1016.3
20200925040855 66 169 5.0 6.0 0.00 0.00 0.00 10 1016.4
20200925040400 66 154 5.0 7.0 0.00 0.00 0.00 10 1016.3
20200925035854 67 156 5.0 6.0 0.00 0.00 0.00 10 1016.1
20200925035348 67 166 6.0 7.0 0.00 0.00 0.00 10 1016.3
20200925034841 67 157 5.0 6.0 0.00 0.00 0.00 10 1016.4
20200925034339 67 170 3.0 3.0 0.00 0.00 0.00 10 1016.2
20200925033839 67 153 3.0 3.0 0.00 0.00 0.00 10 1016.3
20200925033334 67 163 3.0 5.0 0.00 0.00 0.00 10 1016.1
20200925032829 67 180 3.0 3.0 0.00 0.00 0.00 10 1016.2
20200925032327 67 185 5.0 5.0 0.00 0.00 0.00 10 1016.1